Location: Newark
(5.8900°S, 42.6378°W)
Time: 07:41:57
(UTC+00:00)

Vanguard 3 - Visible Passes

Search period start: 20 September 2019 00:00
Search period end: 30 September 2019 00:00
Orbit: 508 x 3263 km, 33.4° (Epoch: 19 September)

Date Brightness Start Highest point End Pass type
(mag) Time Alt. Az. Time Alt. Az. Time Alt. Az.
20 Sep 8.1 06:30:43 68° SSW 06:31:40 75° SE 06:43:41 10° ENE visible
21 Sep 9.8 05:21:21 24° E 05:21:21 24° E 05:25:52 10° ENE visible
21 Sep 8.7 07:25:57 29° W 07:30:19 54° NNW 07:43:26 10° NE visible
21 Sep 9.5 21:13:53 10° W 21:21:34 27° SW 21:26:34 10° SSE visible
22 Sep 8.2 06:16:36 71° NE 06:16:36 71° NE 06:26:32 10° NE visible
23 Sep 10.2 05:07:14 17° ENE 05:07:14 17° ENE 05:09:22 10° ENE visible
23 Sep 8.6 07:11:50 35° WNW 07:14:17 43° NNW 07:25:45 10° NE visible
23 Sep 9.7 20:57:33 10° W 21:05:25 24° SW 21:10:40 10° SSE visible
24 Sep 8.9 06:02:28 42° NE 06:02:28 42° NE 06:09:22 10° NE visible
24 Sep 9.7 08:07:30 10° WNW 08:14:08 23° NNW 08:23:50 10° NNE visible
25 Sep 8.8 06:57:40 32° NW 06:58:25 32° NNW 07:08:00 10° NNE visible
26 Sep 9.6 05:48:15 24° NE 05:48:15 24° NE 05:52:14 10° NE visible
26 Sep 9.8 07:53:08 10° NW 07:58:22 17° NNW 08:05:22 10° NNE visible
27 Sep 9.3 06:43:24 23° NNW 06:43:24 23° NNW 06:50:11 10° NNE visible
28 Sep 10.2 05:33:56 13° NNE 05:33:56 13° NNE 05:35:03 10° NE visible
28 Sep 9.9 07:39:49 10° NW 07:42:42 12° NNW 07:46:03 10° N visible
29 Sep 9.8 06:29:01 15° N 06:29:01 15° N 06:32:07 10° NNE visible
